Weather History for Meridian NAS, MS

Change the Weather History Date:

Tuesday, June 18, 2013

  Actual Average Record
Temperature  
Mean Temperature 76 °F -  
Max Temperature 84 °F 86 °F 98 °F (2011)
Min Temperature 69 °F 67 °F 57 °F (1999)
Cooling Degree Days 10    
Growing Degree Days 26 (Base 50)    
Moisture  
Dew Point 70 °F    
Average Humidity 85    
Maximum Humidity 94    
Minimum Humidity 63    
Precipitation  
Precipitation 1.53 in - - ()
Sea Level Pressure  
Sea Level Pressure 29.97 in    
Wind  
Wind Speed 8 mph (West)    
Max Wind Speed 30 mph    
Max Gust Speed 43 mph    
Visibility 8 miles    
Events Rain , Thunderstorm    
Averages and records for this station are not official NWS values.
T = Trace of Precipitation, MM = Missing Value Source: NWS Daily Summary

Daily Weather History Graph

Daily Weather History Graph

Search for Another Location

Airport:

Trip Planner

Search our weather history database for the weather conditions in past years. The results will help you decide how hot, cold, wet, or windy it might be!

Date:

Astronomy

Jun. 18, 2013 Rise Set
Actual Time 5:46 AM CDT 8:04 PM CDT
Civil Twilight 5:18 AM CDT 8:32 PM CDT
Nautical Twilight 4:43 AM CDT 9:07 PM CDT
Astronomical Twilight 4:05 AM CDT 9:45 PM CDT
Moon 3:00 PM CDT (6/18) 1:40 AM CDT (6/18)
Length of Visible Light 15h 14m
Length of Day
14h 17m
Waxing Gibbous, 71% of the Moon is Illuminated
Jun 18
Waxing Gibbous
Jun 23
Full
Jun 29
Last Quarter
Jul 8
New
Jul 15
First Quarter

Hourly Weather History & Observations

Time (CDT) Temp. Heat Index Dew Point Humidity Pressure Visibility Wind Dir Wind Speed Gust Speed Precip Events Conditions
12:56 AM 73.0 °F - 71.1 °F 93% 29.95 in 10.0 mi South 3.5 mph - 0.01 in   Overcast
1:56 AM 73.9 °F - 72.0 °F 93% 29.94 in 10.0 mi South 3.5 mph - N/A   Mostly Cloudy
2:56 AM 75.0 °F - 72.0 °F 90% 29.94 in 10.0 mi SSW 4.6 mph - N/A   Partly Cloudy
3:56 AM 75.9 °F - 72.0 °F 87% 29.94 in 10.0 mi SW 6.9 mph - N/A   Scattered Clouds
4:12 AM 75.2 °F - 71.6 °F 89% 29.92 in 10.0 mi WSW 5.8 mph - N/A Thunderstorm Thunderstorm
4:46 AM 75.2 °F - 69.8 °F 83% 29.95 in 10.0 mi West 23.0 mph 33.4 mph N/A Thunderstorm Thunderstorm
4:53 AM 73.4 °F - 69.8 °F 88% 29.95 in 9.0 mi WNW 21.9 mph 32.2 mph N/A Thunderstorm Thunderstorm
4:56 AM 72.0 °F - 68.0 °F 87% 29.98 in 7.0 mi WNW 29.9 mph 42.6 mph N/A Thunderstorm Thunderstorm
5:09 AM 71.6 °F - 68.0 °F 88% 29.96 in 1.8 mi WNW 25.3 mph 35.7 mph 0.18 in Rain , Thunderstorm Heavy Thunderstorms and Rain
5:22 AM 69.8 °F - 68.0 °F 94% 29.97 in 1.0 mi West 12.7 mph 28.8 mph 0.58 in Rain , Thunderstorm Heavy Thunderstorms and Rain
5:30 AM 69.8 °F - 68.0 °F 94% 29.96 in 0.8 mi West 5.8 mph - 0.89 in Rain , Thunderstorm Heavy Thunderstorms and Rain
5:34 AM 69.8 °F - 68.0 °F 94% 29.96 in 1.0 mi WNW 6.9 mph - 0.97 in Rain , Thunderstorm Heavy Thunderstorms and Rain
5:42 AM 71.6 °F - 69.8 °F 94% 29.96 in 2.0 mi WNW 8.1 mph - 1.02 in Rain , Thunderstorm Heavy Thunderstorms and Rain
5:48 AM 71.6 °F - 69.8 °F 94% 29.96 in 4.0 mi West 9.2 mph - 1.06 in Rain , Thunderstorm Thunderstorms and Rain
5:56 AM 71.1 °F - 68.0 °F 90% 29.99 in 2.5 mi WSW 17.3 mph 25.3 mph 1.15 in Rain , Thunderstorm Heavy Thunderstorms and Rain
6:17 AM 69.8 °F - 66.2 °F 88% 29.95 in 6.0 mi South 6.9 mph - 0.17 in Rain , Thunderstorm Light Thunderstorms and Rain
6:56 AM 70.0 °F - 68.0 °F 93% 29.99 in 10.0 mi West 4.6 mph - 0.18 in Rain , Thunderstorm Light Thunderstorms and Rain
7:08 AM 71.6 °F - 69.8 °F 94% 29.96 in 10.0 mi Calm Calm - 0.00 in Thunderstorm Thunderstorm
7:28 AM 71.6 °F - 68.0 °F 88% 29.97 in 10.0 mi SW 3.5 mph - 0.00 in   Scattered Clouds
7:33 AM 71.6 °F - 68.0 °F 88% 29.97 in 10.0 mi Calm Calm - 0.00 in Thunderstorm Thunderstorm
7:56 AM 73.0 °F - 70.0 °F 90% 30.01 in 10.0 mi WNW 12.7 mph - 0.00 in Thunderstorm Thunderstorm
8:17 AM 71.6 °F - 66.2 °F 83% 29.99 in 3.0 mi WSW 11.5 mph 21.9 mph 0.09 in Rain , Thunderstorm Light Thunderstorms and Rain
8:30 AM 69.8 °F - 66.2 °F 88% 29.99 in 6.0 mi SW 8.1 mph - 0.13 in Rain , Thunderstorm Light Thunderstorms and Rain
8:56 AM 70.0 °F - 68.0 °F 93% 30.01 in 10.0 mi Variable 4.6 mph - 0.16 in Rain , Thunderstorm Light Thunderstorms and Rain
9:13 AM 73.4 °F - 69.8 °F 88% 29.98 in 10.0 mi SW 5.8 mph - 0.00 in   Mostly Cloudy
9:56 AM 75.9 °F - 72.0 °F 87% 29.99 in 10.0 mi SSW 4.6 mph - 0.00 in   Mostly Cloudy
10:36 AM 78.8 °F - 71.6 °F 78% 29.97 in 10.0 mi WSW 9.2 mph - N/A   Mostly Cloudy
10:49 AM 78.8 °F - 71.6 °F 78% 29.97 in 10.0 mi WSW 8.1 mph - N/A   Mostly Cloudy
10:56 AM 80.1 °F 83.8 °F 72.0 °F 76% 29.99 in 10.0 mi WSW 9.2 mph - N/A   Scattered Clouds
11:56 AM 82.0 °F 85.9 °F 70.0 °F 67% 29.98 in 10.0 mi WSW 11.5 mph - N/A   Partly Cloudy
12:56 PM 81.0 °F 84.4 °F 70.0 °F 69% 29.99 in 10.0 mi West 10.4 mph - N/A   Mostly Cloudy
1:56 PM 82.0 °F 85.9 °F 70.0 °F 67% 29.98 in 10.0 mi West 11.5 mph 18.4 mph N/A   Mostly Cloudy
2:56 PM 82.9 °F 88.0 °F 72.0 °F 69% 29.96 in 10.0 mi WNW 12.7 mph - N/A   Mostly Cloudy
3:56 PM 82.0 °F 86.3 °F 71.1 °F 69% 29.94 in 10.0 mi WSW 6.9 mph - N/A   Mostly Cloudy
4:56 PM 82.9 °F 87.0 °F 70.0 °F 65% 29.94 in 10.0 mi West 10.4 mph - N/A   Mostly Cloudy
5:56 PM 82.9 °F 86.5 °F 69.1 °F 63% 29.94 in 10.0 mi NNW 8.1 mph - 0.00 in   Mostly Cloudy
6:56 PM 79.0 °F - 71.1 °F 77% 29.96 in 10.0 mi NNW 4.6 mph - N/A   Mostly Cloudy
7:38 PM 75.2 °F - 71.6 °F 89% 29.94 in 6.0 mi WNW 9.2 mph - 0.03 in Rain Light Rain
7:56 PM 73.9 °F - 70.0 °F 87% 29.96 in 10.0 mi West 3.5 mph - 0.03 in   Mostly Cloudy
8:56 PM 73.0 °F - 70.0 °F 90% 29.96 in 10.0 mi Calm Calm - N/A   Mostly Cloudy
9:56 PM 73.0 °F - 70.0 °F 90% 29.98 in 10.0 mi Calm Calm - N/A   Mostly Cloudy
10:56 PM 72.0 °F - 70.0 °F 93% 29.99 in 10.0 mi NNW 3.5 mph - N/A   Mostly Cloudy
11:56 PM 73.0 °F - 70.0 °F 90% 29.99 in 10.0 mi Calm Calm - N/A   Mostly Cloudy